Location: Newark
(52.2583°N, 7.1190°W)
Time: 16:10:24
(UTC+00:00)

ISS - Visible Passes

Search period start: 20 October 2019 00:00
Search period end: 30 October 2019 00:00
Orbit: 411 x 421 km, 51.6° (Epoch: 20 October)

Date Brightness Start Highest point End Pass type
(mag) Time Alt. Az. Time Alt. Az. Time Alt. Az.
24 Oct -0.8 06:24:04 10° S 06:26:02 15° SE 06:28:00 10° ESE visible
26 Oct -1.7 06:22:15 10° SSW 06:25:10 27° SSE 06:28:05 10° E visible
27 Oct -1.3 05:34:09 10° SSW 05:36:41 20° SE 05:39:13 10° E visible
28 Oct -1.1 04:47:24 13° SSE 04:48:15 14° SE 04:50:04 10° ESE visible
28 Oct -2.8 06:21:08 10° SW 06:24:24 47° SSE 06:27:39 10° E visible
29 Oct -2.4 05:34:00 20° SSW 05:35:49 35° SSE 05:38:56 10° E visible
